Regional Weather Roundup
Issued by NWS Glasgow, MT

Home | Current Version | Previous Version | Text Only | Print | Product List | Glossary On
Versions: 1 2 3 4 5 6 7 8 9 10 11 12 13 14 15 16 17 18 19 20 21 22 23 24 25 26 27 28 29 30 31 32 33 34 35 36 37 38 39 40 41 42 43 44 45 46 47 48 49 50
442
ASUS45 KGGW 100315
RWRGGW
HOURLY REGIONAL WEATHER ROUNDUP FOR NORTHEAST MONTANA
NATIONAL WEATHER SERVICE GLASGOW MONTANA
800 PM MST TUE FEB 09 2016

NOTE: "FAIR" INDICATES FEW OR NO CLOUDS BELOW 12,000 FEET WITH NO
SIGNIFICANT WEATHER AND/OR OBSTRUCTIONS TO VISISBILITY.

NORTHEAST MONTANA


CITY           SKY/WX    TMP DP  RH WIND       PRES   REMARKS
GLASGOW        CLOUDY    39  31  72 SW3       29.99F
PLENTYWOOD       N/A     31  25  78 SE6         N/A
WOLF POINT     CLOUDY    33  29  85 CALM      30.00F
JORDAN           N/A     31  28  89 SW7       30.03F
WINNETT          N/A     33  28  81 CALM        N/A
SIDNEY         PTCLDY    32  21  64 CALM      30.01F
GLENDIVE       CLOUDY    37  28  70 NW7       30.02F
MALTA            N/A     34  30  85 SW3         N/A
SCOBEY           N/A     33  24  70 CALM      29.95F

FORT PECK REPORTS


CITY           SKY/WX    TMP DP  RH WIND       PRES   REMARKS
FORT PECK        N/A     43  32  65 SW8         N/A
THE PINES        N/A     45  30  55 S6          N/A

SOUTHEAST MONTANA


CITY           SKY/WX    TMP DP  RH WIND       PRES   REMARKS
BILLINGS       CLEAR     47  23  38 SW23      30.11F
MILES CITY     CLEAR     40  29  64 NW9       30.04F
BAKER          CLOUDY    34  26  72 W9        30.02F
LIVINGSTON     CLOUDY    38  25  59 NW17      30.24R

CENTRAL MONTANA


CITY           SKY/WX    TMP DP  RH WIND       PRES   REMARKS
HAVRE          CLOUDY    41  29  62 SW16      30.01F
LEWISTOWN      CLOUDY    45  25  45 SW18      30.10S
GREAT FALLS    CLOUDY    47  21  35 S14       30.11F
CUT BANK       MOCLDY    47  26  44 W13       30.08S
HELENA         CLOUDY    36  28  73 W3        30.25F
BUTTE          CLOUDY    23  18  81 SE3       30.30F
BOZEMAN        CLOUDY    30  25  81 S5        30.29S

WESTERN MONTANA


CITY           SKY/WX    TMP DP  RH WIND       PRES   REMARKS
MISSOULA       CLEAR     33  28  81 CALM      30.29F
KALISPELL      NOT AVBL

NORTH DAKOTA


CITY           SKY/WX    TMP DP  RH WIND       PRES   REMARKS
WILLISTON      CLOUDY    30  24  78 SW3       30.00F
DICKINSON      PTCLDY    26  20  77 S5        30.00F
MINOT          FLURRIES  24  15  68 E13       30.08F
BISMARCK       CLOUDY    35  22  58 NE3       30.08F

SOUTHERN SASKATCHEWAN


CITY           SKY/WX    TMP DP  RH WIND       PRES   REMARKS
REGINA         CLOUDY    28  25  86 SE14      29.94F
ESTEVAN        CLOUDY    25  19  80 E14       30.00F
SWIFT CURRENT  PTCLDY    37  30  75 SW12      29.92F





USA.gov is the U.S. government's official web portal to all federal, state and local government web resources and services.